DELTA 1 DEB, 29189

Orbit data source: Space-Track

DELTA 1 DEB, 29189 is space debris in LEO originally from a launch on Thu, 11 Jan 1968 UTC launched from the Air Force Western Test Range (AFWTR). Debris objects in space refer to the collection of defunct objects orbiting the Earth. Examples of debris include non-operational satellites, rocket bodies, and fragments generated from explosions, collisions, or faulty payload assembly.

Loading next visibility...
Identifier
29189, 1968-002N
Orbit
LEO
Last TLE update
1 week ago
Origin
Manufacturer
Unknown
Mission
Spacecraft
Bus & Motor
Unknown
Mass
Unknown
Launch date (UTC)
1968-01-11 (57 years ago)
Launch vehicle
Unknown
Launch site
Air Force Western Test Range (AFWTR)
Object type
Payload
Rocket body
Debris
Shape & HBR
Unknown
Radar Cross Section
Small (<0.1 m²)

Expand to show TLE details & history

TLE from 1 week ago
0 DELTA 1 DEB
1 29189U 68002N   25159.39567222  .00000937  00000-0  23630-2 0  9998
2 29189 105.8367 358.9485 0243311 151.8547 332.0451 13.14489124480409
Epoch: 2025-06-08T09:29Z
TLE epoch observation values (Epoch: 2025-06-08T09:29:46.079Z)
Latitude
54.28522°
Longitude
162.59496°
Altitude
1,052.406 km
Speed
7.409 km/s
True Right ascension
13h 28m 14s
True Declination
54° 07' 43"
Sunlit
Object was in daylight at epoch
Visualization orbit readout
Latitude
61.6853°
Longitude
-60.04214°
Altitude
1,154.518 km
Speed
7.311 km/s
Apparent Right ascension
12h 57m 30s
Apparent Declination
59° 11' 01"
Sunlit
Object is in daylight
Visualization observer readout
Local Sidereal Time
23:18:28
Azimuth
347.367° N
Elevation
11.202°
Doppler factor
1
Orbital elements
Apogee altitude
1,388.063 km
Perigee altitude
1,019.119 km
Semi-major axis
7,581.728 km
Eccentricity
0.02433
Inclination
105.8367°
RAAN
358.9485°
Arg. of periapsis
151.8547°
True anomaly
Unknown
Mean anomaly
332.0451°
Eccentric anomaly
Unknown
Mean motion
3.28769 °/min
Orbital period
109.5 mins
BSTAR
0.002363
Loading maneuver chart data...
Loading SW <> Apogee altitude chart data...
Loading historical data...
Loading historical data...
Loading historical data...
Loading historical data...
Loading historical data...
Loading historical data...
Loading historical data...

DELTA 1 DEB Visibility forecast

Observer location: undefined°, undefined°

Span
Click to sort rows by Start time (UTC) header in descending order
Start Az.
Max El. time (UTC)
Max El. Az.
Max El.
End time (UTC)
End Az.
10 mins2025-06-16 14:14:47.985Z203.751° SW2025-06-16 14:19:47.985Z257.907° W27.503°2025-06-16 14:24:47.985Z311.081° NW
8 mins2025-06-17 01:44:47.985Z59.138° ENE2025-06-17 01:48:47.985Z110.55° ESE23.306°2025-06-17 01:52:47.985Z154.166° SSE
10 mins2025-06-17 03:30:47.985Z9.537° NNE2025-06-17 03:35:47.985Z297.246° NW37.729°2025-06-17 03:40:47.985Z228.691° WSW
11 mins2025-06-17 12:11:47.985Z121.585° SE2025-06-17 12:17:47.985Z52.588° ENE33.563°2025-06-17 12:22:47.985Z355.092° N
|